Location: NJAA Observatory
(40.6819°N, 74.8979°W)
Time: 16:18:32
(UTC-04:00)

S-56A Canister/Altair - Visible Passes

Search period start: 03 July 2015 00:00
Search period end: 13 July 2015 00:00
Orbit: 636 x 2499 km, 38.9° (Epoch: 30 June)

Date Brightness Start Highest point End Pass type
(mag) Time Alt. Az. Time Alt. Az. Time Alt. Az.
04 Jul 11.6 22:09:42 10° WSW 22:13:49 11° SW 22:16:35 10° SW visible
05 Jul 11.5 21:34:55 10° WSW 21:40:58 13° SW 21:46:10 10° SSW visible
06 Jul 11.5 21:01:05 10° WSW 21:08:07 15° SW 21:14:49 10° SSW visible
